Regional Weather Roundup
Issued by NWS Newport/Morehead, NC

Current Version | Previous Version | Text Only | Print | Product List | Glossary On
Versions: 1 2 3 4 5 6 7 8 9 10 11 12 13 14 15 16 17 18 19 20 21 22 23 24 25 26 27 28 29 30 31 32 33 34 35 36 37 38 39 40 41 42 43 44 45 46 47 48 49 50
000
ASUS42 KMHX 031812
RWRMHX
WEATHER ROUNDUP FOR EASTERN NORTH CAROLINA
NATIONAL WEATHER SERVICE NEWPORT/MOREHEAD CITY NC
100 PM EST SAT DEC 03 2016

NOTE: "FAIR" INDICATES FEW OR NO CLOUDS BELOW 12,000 FEET
WITH NO SIGNIFICANT WEATHER AND/OR OBSTRUCTIONS TO VISIBILITY

NCZ015>017-031-032-045>047-102-103-031900-
NORTH COAST

CITY           SKY/WX    TMP DP  RH WIND       PRES   REMARKS
EDENTON        SUNNY     53  31  43 N13       30.22S
ELIZABETH CITY SUNNY     54  30  40 NW13G18   30.19F
KITTY HAWK     CLEAR     51  35  56 N9        30.18F
MANTEO         SUNNY     50  33  51 N15G21    30.20F

$$

NCZ045>047-081-094-103-104-031900-
CENTRAL COAST

CITY           SKY/WX    TMP DP  RH WIND       PRES   REMARKS
FRISCO         SUNNY     52  35  52 N8        30.20F

$$

NCZ095-097-098-100-101-031900-
SOUTHERN COAST

CITY           SKY/WX    TMP DP  RH WIND       PRES   REMARKS
BEAUFORT       SUNNY     54  31  41 N13G18    30.20F
CEDAR ISLAND   NOT AVBL
JACKSONVILLE   SUNNY     52  28  39 N8        30.21F
PINEY ISLAND   CLEAR    N/A N/A N/A N14       30.20F
WILMINGTON     NOT AVBL


$$

NCZ011>013-027>030-043-044-078>080-089-090>093-098-031900-
COASTAL PLAIN

CITY           SKY/WX    TMP DP  RH WIND       PRES   REMARKS
AHOSKIE        SUNNY     50  28  42 NW6       30.23F
CLINTON        SUNNY     51  30  44 N6        30.26F
ELIZABETHTOWN  SUNNY     51  30  44 NW5       30.24F
GOLDSBORO      MOSUNNY   52  27  37 VRB6      30.22F
GREENVILLE     SUNNY     52  30  43 N7        30.25F
HAVELOCK       SUNNY     53  30  41 NW10      30.22F
KENANSVILLE    SUNNY     52  28  40 N7        30.24F
KINSTON        SUNNY     52  28  40 N8        30.23F
NEW BERN       SUNNY     52  30  43 N9        30.23F
RICHLANDS      SUNNY     52  29  41 NW7       30.23F
ROCKY MOUNT    SUNNY     52  29  41 MISG      30.24F
WASHINGTON     SUNNY     53  29  40 NW8       30.24S
WHITEVILLE     CLOUDY    51  30  45 NE6       30.24F

$$

AMZ130-135-150-152-154-156-158-170-250-252-270-ANZ085-086-088-633-658-670-031900-
MARINE OBSERVATIONS

STATION/POSITION TIME  TEMP    WIND        PRES    WAVE   SWELL
                       AIR SEA DIR/SP/G            HT/PER HT/PER
                 (UTC) (F)     (DEG/KT/KT) (MB)    (FT/S) (FT/S)
CHESAPEAKE LIGHT NOT AVBL
64 E VA BEACH    1750   49 60  330/ 19/ 25 1020.8    8/ 7   5/ 7
DUCK             1748   49 56  330/ 16/ 20 1021.3
2 E DUCK         NOT AVBL
OREGON INLET     1742   50 56  340/ 12/ 17 1021.9
13E OREGON INLT  1800      61                N/A     6/ 8   5/ 8
HATTERAS CG      1748   49 57  350/ 14/ 16 1022.2
DIAMOND BUOY     1750   53 74  360/ 17/ 21 1022.2    5/ 8   3/ 8
CAPE LOOKOUT     1800   50     360/ 10/ 13 1022.5
BEAUFORT LAB     1748   50 56  340/  8/ 14 1021.7
30 SE NEW RVR IN 1708   49 71   20/ 10/ 17 1024.0
30 SE NEW RVR IN NOT AVBL
27 SE WRIGHTSVLE 1708   50 69   20/ 14/ 23 1023.6
5 SE WRIGHTSVLE  1708   47 63   20/ 10/ 19 1024.2
225 S CAPE HAT   1750   64 74  350/ 14/ 17 1019.8    5/ 6   3/ 7
41 SE CHARLESTON 1750   57 75   40/ 16/ 17 1022.4    4/ 5   2/ 9

$$




USA.gov is the U.S. government's official web portal to all federal, state and local government web resources and services.